DW9051 Weather Reports


time (UTC)temp
C
wind
direction
speed
KPH
gust
KPH
rain 1hr
cm
rain 24hr
cm
rain mn
cm
humidity
%
barometer
mb
20260505035521 16 312 3.2 6.4 0.00 0.00 0.00 74 1009.4
20260505034521 16 326 3.2 6.4 0.00 0.00 0.00 74 1009.2
20260505033538 17 73 4.8 8.0 0.00 0.00 0.00 73 1009.2
20260505032518 17 309 4.8 6.4 0.00 0.00 0.00 71 1009.1
20260505031519 17 329 1.6 3.2 0.00 0.00 0.00 71 1009.0
20260505030538 18 299 3.2 4.8 0.00 0.00 0.00 71 1008.9
20260505025539 18 328 1.6 6.4 0.00 0.00 0.00 70 1008.9
20260505024539 18 315 4.8 8.0 0.00 0.00 0.00 68 1008.9
20260505023519 19 323 3.2 4.8 0.00 0.00 0.00 67 1008.8
20260505022519 20 13 3.2 6.4 0.00 0.00 0.00 65 1009.0
20260505021519 20 45 3.2 11.3 0.00 0.00 0.00 63 1009.0
20260505020520 21 37 4.8 11.3 0.00 0.00 0.00 62 1009.0
20260505015539 21 0 4.8 9.7 0.00 0.00 0.00 61 1009.2
20260505014520 21 345 4.8 11.3 0.00 0.00 0.00 59 1009.4
20260505013519 21 18 4.8 11.3 0.00 0.00 0.00 57 1009.5
20260505012520 21 342 6.4 12.9 0.00 0.00 0.00 57 1009.6
20260505011519 21 339 6.4 11.3 0.00 0.00 0.00 56 1009.7
20260505010517 21 337 8.0 16.1 0.00 0.00 0.00 56 1009.7
20260505005540 22 333 9.7 17.7 0.00 0.00 0.00 54 1009.8
20260505004520 22 342 6.4 9.7 0.00 0.00 0.00 54 1009.8
20260505003520 22 319 8.0 12.9 0.00 0.00 0.00 53 1009.8
20260505002537 22 342 8.0 14.5 0.00 0.00 0.00 54 1009.8
20260505001517 22 331 8.0 12.9 0.00 0.00 0.00 55 1010.0
20260505000518 22 324 4.8 8.0 0.00 0.00 0.00 57 1010.1
20260504235521 20 93 4.8 8.0 0.00 0.00 0.00 72 1010.0
20260504234520 18 145 3.2 6.4 0.00 0.00 0.00 76 1009.9
20260504233518 18 149 4.8 8.0 0.00 0.00 0.00 77 1009.9
20260504232518 19 156 6.4 9.7 0.00 0.00 0.00 76 1010.1
20260504231518 20 148 4.8 8.0 0.00 0.00 0.00 72 1010.1
20260504230518 20 151 3.2 4.8 0.00 0.00 0.00 72 1010.4
20260504225521 19 134 4.8 8.0 0.00 0.00 0.00 74 1010.4
20260504224519 18 116 6.4 11.3 0.00 0.00 0.00 76 1010.4
20260504223518 19 158 6.4 9.7 0.00 0.00 0.00 74 1010.4
20260504222519 19 134 6.4 12.9 0.00 0.00 0.00 75 1010.6
20260504221518 19 129 4.8 8.0 0.00 0.00 0.00 72 1010.8
20260504220519 19 135 6.4 11.3 0.00 0.00 0.00 71 1010.9
20260504215559 18 145 8.0 12.9 0.00 0.00 0.00 69 1011.0
20260504214519 18 149 8.0 14.5 0.00 0.00 0.00 73 1010.9
20260504213519 18 154 8.0 12.9 0.00 0.00 0.00 75 1011.0
20260504212520 18 153 8.0 11.3 0.00 0.00 0.00 75 1011.0
20260504211519 17 153 6.4 9.7 0.00 0.00 0.00 79 1011.2
20260504210519 17 156 9.7 11.3 0.00 0.00 0.00 80 1011.1
20260504205520 17 160 9.7 16.1 0.00 0.00 0.00 81 1011.1
20260504204519 17 162 11.3 14.5 0.00 0.00 0.00 82 1011.0
20260504203520 18 150 9.7 16.1 0.00 0.00 0.00 76 1011.2
20260504202520 17 138 4.8 9.7 0.00 0.00 0.00 76 1011.4
20260504201517 17 138 4.8 9.7 0.00 0.00 0.00 80 1011.6
20260504200517 16 140 4.8 9.7 0.00 0.00 0.00 81 1011.6
20260504195520 16 129 6.4 9.7 0.00 0.00 0.00 81 1011.5
20260504194521 16 130 6.4 9.7 0.00 0.00 0.00 82 1011.4
20260504193517 15 141 6.4 9.7 0.00 0.00 0.00 82 1011.5
20260504192537 15 143 6.4 9.7 0.00 0.00 0.00 85 1011.5
20260504191518 15 157 8.0 12.9 0.00 0.00 0.00 85 1011.4
20260504185521 15 151 8.0 11.3 0.00 0.00 0.00 85 1011.5
20260504184518 14 153 8.0 11.3 0.00 0.00 0.00 87 1011.4
20260504183518 14 157 6.4 11.3 0.00 0.00 0.00 87 1011.4
20260504182519 15 128 4.8 12.9 0.00 0.00 0.00 87 1011.8
20260504181518 14 121 6.4 9.7 0.00 0.00 0.00 87 1011.7
20260504180518 14 122 4.8 9.7 0.00 0.00 0.00 88 1011.6
20260504175519 13 114 4.8 9.7 0.00 0.00 0.00 89 1011.6
20260504174519 13 154 6.4 8.0 0.00 0.00 0.00 89 1011.4
20260504173519 13 156 8.0 11.3 0.00 0.00 0.00 89 1011.4
20260504172519 13 157 8.0 11.3 0.00 0.00 0.00 87 1011.4
20260504171519 13 146 8.0 11.3 0.00 0.00 0.00 85 1011.3
20260504170539 13 154 6.4 9.7 0.00 0.00 0.00 86 1011.3
20260504150517 11 174 1.6 3.2 0.00 0.00 0.00 88 1010.4
20260504140518 11 112 0.0 3.2 0.00 0.00 0.00 88 1009.6
20260504130518 11 226 0.0 3.2 0.00 0.00 0.00 87 1009.0
20260504110517 11 154 1.6 3.2 0.00 0.00 0.00 82 1008.8
20260504100518 12 45 0.0 1.6 0.00 0.00 0.00 78 1008.9
20260504081537 12 226 3.2 4.8 0.00 0.00 0.00 81 1008.7
20260504080537 12 217 1.6 4.8 0.00 0.00 0.00 78 1008.4
20260504050519 16 299 4.8 4.8 0.00 0.00 0.00 68 1008.8
20260504045519 17 117 1.6 4.8 0.00 0.00 0.00 61 1008.8
20260504044519 17 14 1.6 3.2 0.00 0.00 0.00 58 1008.9
20260504043520 17 331 1.6 4.8 0.00 0.00 0.00 56 1008.9
20260504042519 18 313 3.2 4.8 0.00 0.00 0.00 56 1009.0
20260504041517 18 309 3.2 6.4 0.00 0.00 0.00 54 1009.0
20260504040520 18 306 4.8 6.4 0.00 0.00 0.00 54 1008.9